Content
SEND FEEDBACK

Daily
Averages
Monthly
Summary
Mauritius

VACOAS, MAURITIUS


Home > Indian Ocean > Mauritius
Elevation: 1394 feet     Latitude: 20 18S     Longitude: 057 30E

WEATHER
 
SELECT A DAY
Number of Records: 208,825;   Date Range: 7/1/96 - 8/20/14
 
SHARE

PRINT THIS DATA

[ ← Previous Day ]
WEATHER ALMANAC - JANUARY 31, 2013
[ Next Day → ]
[ °C ]   °F
Weather ElementAverageHighLow
Temperature78.7 °F82.4 °F (9:00 am) (6:00 am)
Dewpoint76.6 °F78.8 °F (2:00 pm)75 °F (9:00 pm)
Humidity85.4 %94 % (2:00 am)78 % (12:00 pm)
Barometer29.22 in29.95 in (1:00 am) (7:00 pm)
Wind Speed11.7 mph19.6 mph (8:00 pm)
Wind Gust25.3 mph (6:00 pm)
Weather ElementAverage
Visibility7.5 mi
Wind DirectionENE (63.1 °)

Weather ElementTotal
Precipitation---
Heating Degree Days23.8 (Base 65)
Averaged from 39 records on January 31, 2013
WEATHER CONDITIONS BREAKOUT
WIND DIRECTION BREAKOUT
WEATHER BY HOUR - JANUARY 31, 2013
[ °C ]   °F
Local TimeTemperatureDewpointHumidityBarometerVisibilityWind DirectionWind SpeedGust SpeedPrecipitationEventsConditions
1:00 AM78.8 °F75.2 °F89 %29.95 in3.7 miENE (70°)6.9 mphRainRain
2:00 AM78.8 °F77.0 °F94 %29.92 in6.2 miENE (60°)4.6 mphMostly Cloudy
3:00 AM78.8 °F77.0 °F94 %29.89 in6.2 miENE (70°)8.1 mphMostly Cloudy
4:00 AM80.0 °F76.0 °F84 %29.89 in9.0 miENE (60°)9.2 mphOvercast
4:00 AM80.6 °F77.0 °F89 %29.89 in6.2 miENE (70°)6.9 mphMostly Cloudy
5:00 AM80.6 °F77.0 °F89 %29.89 in6.2 miENE (70°)6.9 mphMostly Cloudy
6:00 AM0.0 °F77.0 °F29.89 in5.0 miENE (70°)9.2 mphMostly Cloudy
7:00 AM80.0 °F77.0 °F87 %29.92 in6.0 miENE (60°)12.7 mphOvercast
7:00 AM80.6 °F77.0 °F89 %29.92 in6.2 miENE (70°)8.1 mphMostly Cloudy
8:00 AM80.6 °F77.0 °F89 %29.92 in6.2 miENE (60°)9.2 mphMostly Cloudy
8:00 AM81.0 °F77.0 °F83 %29.92 in9.0 miENE (60°)15.0 mphOvercast
9:00 AM82.0 °F78.0 °F83 %29.93 in12.0 miENE (60°)11.5 mphOvercast
9:00 AM82.4 °F77.0 °F84 %29.92 in6.2 miENE (60°)8.1 mphMostly Cloudy
10:00 AM82.0 °F77.0 °F79 %29.92 in12.0 miENE (60°)13.8 mphPartly Cloudy
10:00 AM82.4 °F77.0 °F84 %29.92 in6.2 miENE (60°)10.4 mphMostly Cloudy
11:00 AM82.4 °F77.0 °F84 %29.92 in6.2 miENE (60°)11.5 mphMostly Cloudy
11:00 AM82.0 °F77.0 °F81 %29.92 in12.0 miENE (60°)16.1 mphOvercast
12:00 PM82.0 °F76.0 °F78 %29.93 in12.0 miNNE (30°)11.5 mphOvercast
12:00 PM82.4 °F77.0 °F84 %29.92 in6.2 miNE (40°)10.4 mphMostly Cloudy
1:00 PM82.4 °F77.0 °F84 %29.92 in6.2 miENE (60°)10.4 mphMostly Cloudy
1:00 PM82.0 °F77.0 °F81 %29.92 in12.0 miNE (50°)13.8 mphRainLight Rain Showers
2:00 PM81.0 °F78.0 °F88 %29.90 in7.0 miNE (50°)12.7 mphOvercast
2:00 PM80.6 °F78.8 °F94 %29.89 in6.2 miNE (50°)11.5 mphMostly Cloudy
3:00 PM78.8 °F75.2 °F89 %29.89 in6.2 miEast (80°)10.4 mphMostly Cloudy
4:00 PM82.0 °F77.0 °F79 %29.89 in9.0 miENE (70°)13.8 mphOvercast
4:00 PM82.4 °F77.0 °F84 %29.89 in6.2 miENE (70°)10.4 mphMostly Cloudy
5:00 PM82.0 °F77.0 °F79 %29.87 in9.0 miENE (70°)17.3 mphOvercast
5:00 PM82.4 °F77.0 °F84 %6.2 miEast (80°)11.5 mphMostly Cloudy
6:00 PM80.6 °F75.2 °F84 %29.89 in6.2 miENE (60°)11.5 mph25.3 mphMostly Cloudy
6:00 PM80.0 °F76.0 °F83 %29.88 in12.0 miENE (60°)11.5 mphMostly Cloudy
7:00 PM80.0 °F76.0 °F84 %29.91 in7.0 miENE (70°)11.5 mphRainLight Rain Showers
7:00 PM78.8 °F75.2 °F89 %29.92 in6.2 miENE (70°)11.5 mphMostly Cloudy
8:00 PM80.0 °F77.0 °F89 %29.91 in9.0 miEast (80°)16.1 mphMostly Cloudy
8:00 PM80.6 °F77.0 °F89 %29.92 in6.2 miEast (80°)19.6 mphScattered Clouds
9:00 PM78.8 °F75.2 °F89 %29.95 in6.2 miNE (50°)11.5 mphScattered Clouds
9:00 PM80.0 °F75.0 °F82 %29.94 in9.0 miNE (50°)11.5 mphMostly Cloudy
10:00 PM80.0 °F76.0 °F83 %29.92 in9.0 miENE (70°)15.0 mphMostly Cloudy
10:00 PM80.6 °F75.2 °F84 %29.92 in6.2 miENE (70°)15.0 mphScattered Clouds
11:00 PM80.6 °F75.2 °F84 %29.89 in6.2 miENE (70°)18.4 mphPartly Cloudy
Hourly data recorded from FIMP, located miles away from Vacoas, Mauritius







STORIES FROM OUR PARTNERS